Weather History for Roseburg, OR

Change the Weather History Date:

Thursday, November 21, 2013

  Actual Average Record
Temperature  
Mean Temperature 36 °F 46 °F  
Max Temperature 43 °F 51 °F 65 °F (1933)
Min Temperature 28 °F 40 °F 26 °F (1938)
Degree Days  
Heating Degree Days 29 20  
Month to date heating degree days 322 358  
Since 1 July heating degree days 721 744  
Cooling Degree Days 0 0  
Month to date cooling degree days 0 0  
Year to date cooling degree days 823 480  
Moisture  
Dew Point 28 °F    
Average Humidity 75    
Maximum Humidity 92    
Minimum Humidity 57    
Precipitation  
Precipitation 0.00 in 0.23 in 2.59 in (1998)
Month to date precipitation 2.56 4.22  
Year to date precipitation 15.37 27.50  
Sea Level Pressure  
Sea Level Pressure 30.43 in    
Wind  
Wind Speed 2 mph (NNW)    
Max Wind Speed 9 mph    
Max Gust Speed 20 mph    
Visibility 10 miles    
Events      
T = Trace of Precipitation, MM = Missing Value Source: NWS Daily Summary

Daily Weather History Graph

Daily Weather History Graph

Search for Another Location

Airport:

Trip Planner

Search our weather history database for the weather conditions in past years. The results will help you decide how hot, cold, wet, or windy it might be!

Date:

Astronomy

Nov. 21, 2013 Rise Set
Actual Time 7:14 AM PST 4:44 PM PST
Civil Twilight 6:43 AM PST 5:15 PM PST
Nautical Twilight 6:08 AM PST 5:50 PM PST
Astronomical Twilight 5:34 AM PST 6:24 PM PST
Moon 8:27 PM PST (11/21) 10:23 AM PST (11/21)
Length of Visible Light 10h 32m
Length of Day
9h 29m
Waning Gibbous, 84% of the Moon is Illuminated
Nov 21
Waning Gibbous
Nov 25
Last Quarter
Dec 2
New
Dec 9
First Quarter
Dec 17
Full

Hourly Weather History & Observations

Time (PST) Temp. Windchill Dew Point Humidity Pressure Visibility Wind Dir Wind Speed Gust Speed Precip Events Conditions
12:53 AM 33.1 °F 30.0 °F 28.9 °F 85% 30.30 in 10.0 mi NNW 3.5 mph - N/A   Clear
1:53 AM 33.1 °F 27.7 °F 28.0 °F 82% 30.32 in 10.0 mi North 5.8 mph - N/A   Mostly Cloudy
2:39 AM 32.0 °F 27.5 °F 28.9 °F 88% 30.32 in 10.0 mi NNW 4.6 mph - N/A   Overcast
2:53 AM 33.1 °F 27.7 °F 28.0 °F 82% 30.34 in 10.0 mi North 5.8 mph - N/A   Overcast
3:53 AM 33.1 °F 26.1 °F 28.0 °F 82% 30.36 in 10.0 mi North 8.1 mph - N/A   Overcast
4:53 AM 33.1 °F 26.1 °F 27.0 °F 78% 30.38 in 10.0 mi North 8.1 mph - N/A   Mostly Cloudy
5:00 AM 33.1 °F 26.9 °F 27.0 °F 78% 30.37 in 10.0 mi North 6.9 mph - N/A   Overcast
5:25 AM 32.0 °F 26.4 °F 27.0 °F 82% 30.38 in 10.0 mi North 5.8 mph - N/A   Scattered Clouds
5:33 AM 32.0 °F 27.5 °F 27.0 °F 82% 30.38 in 10.0 mi NNW 4.6 mph - N/A   Mostly Cloudy
5:53 AM 32.0 °F - 27.0 °F 82% 30.40 in 10.0 mi Calm Calm - N/A   Overcast
6:49 AM 30.2 °F - 28.4 °F 93% 30.40 in 10.0 mi Calm Calm - N/A   Overcast
6:53 AM 30.9 °F - 28.0 °F 89% 30.42 in 10.0 mi Calm Calm - N/A   Overcast
7:53 AM 32.0 °F 27.5 °F 27.0 °F 82% 30.45 in 10.0 mi NNW 4.6 mph - N/A   Overcast
8:53 AM 32.0 °F 27.5 °F 27.0 °F 82% 30.46 in 10.0 mi North 4.6 mph - N/A   Overcast
9:45 AM 32.0 °F 26.4 °F 27.0 °F 82% 30.45 in 10.0 mi NW 5.8 mph - N/A   Overcast
9:53 AM 33.1 °F - 27.0 °F 78% 30.47 in 10.0 mi Calm Calm - N/A   Overcast
10:53 AM 34.0 °F - 28.0 °F 79% 30.48 in 10.0 mi Calm Calm - N/A   Mostly Cloudy
11:10 AM 35.1 °F - 28.0 °F 76% 30.46 in 10.0 mi Calm Calm - N/A   Partly Cloudy
11:53 AM 37.9 °F 35.5 °F 27.0 °F 65% 30.47 in 10.0 mi ENE 3.5 mph - N/A   Clear
12:53 PM 39.0 °F - 28.0 °F 65% 30.45 in 10.0 mi Calm Calm - N/A   Clear
1:53 PM 43.0 °F 41.3 °F 28.0 °F 56% 30.43 in 10.0 mi North 3.5 mph - N/A   Clear
2:53 PM 43.0 °F 41.3 °F 28.0 °F 56% 30.43 in 10.0 mi South 3.5 mph - N/A   Clear
3:53 PM 43.0 °F - 28.9 °F 58% 30.44 in 10.0 mi Calm Calm - N/A   Clear
4:53 PM 41.0 °F 39.0 °F 30.0 °F 65% 30.45 in 10.0 mi WSW 3.5 mph - N/A   Clear
5:53 PM 37.0 °F - 30.0 °F 76% 30.48 in 10.0 mi Calm Calm - N/A   Clear
6:53 PM 34.0 °F - 30.9 °F 89% 30.50 in 9.0 mi Calm Calm - N/A   Clear
7:53 PM 32.0 °F - 28.9 °F 88% 30.51 in 10.0 mi Calm Calm - N/A   Clear
8:53 PM 30.9 °F - 28.0 °F 89% 30.52 in 8.0 mi Calm Calm - N/A   Clear
9:53 PM 30.0 °F - 27.0 °F 88% 30.51 in 9.0 mi Calm Calm - N/A   Clear
10:53 PM 28.0 °F - 26.1 °F 92% 30.52 in 6.0 mi Calm Calm - N/A   Clear
11:45 PM 28.0 °F - 26.1 °F 92% 30.52 in 6.0 mi Calm Calm - N/A   Scattered Clouds
11:53 PM 28.0 °F - 26.1 °F 92% 30.54 in 5.0 mi Calm Calm - N/A   Mostly Cloudy